Location: *
(47.2969°N, 10.2930°E)
Time: 18:29:43
(UTC+00:00)

MOS 1 Rocket - Pass Details

Date: 09 April 2020
Orbit: 615 x 830 km, 97.4° (Epoch: 24 May)

Event Time Altitude Azimuth Distance (km) Brightness Sun altitude
Rises 19:14:55 0° 16° (NNE) 3,349 7.0 -12.7°
Reaches altitude 10° 19:17:19 10° 21° (NNE) 2,429 6.2 -13.1°
Maximum altitude 19:22:39 55° 99° (E) 993 3.7 -13.9°
Drops below altitude 10° 19:27:57 10° 177° (S) 2,424 5.8 -14.7°
Sets 19:30:21 0° 181° (S) 3,342 6.5 -15.0°
